Regional Weather Roundup
Issued by NWS

Home | Current Version | Previous Version | Graphics & Text | Print | Product List | Glossary On
Versions: 1 2 3 4 5 6 7 8 9 10 11 12 13 14 15 16 17 18 19 20 21 22 23 24 25 26 27 28 29 30 31 32 33 34 35 36 37 38 39 40 41 42 43 44 45 46 47 48 49 50
000
ASUS43 KMKX 261200
RWRWI

WISCONSIN REGIONAL WEATHER ROUNDUP
NATIONAL WEATHER SERVICE MILWAUKEE/SULLIVAN WI
700 AM CDT SUN MAR 26 2017

NOTE: "FAIR" INDICATES FEW OR NO CLOUDS BELOW 12,000 FEET WITH NO
SIGNIFICANT WEATHER AND/OR OBSTRUCTIONS TO VISIBILITY.

WIZ001-002-006>008-014>016-023>028-261300-
NORTHWEST WISCONSIN

CITY           SKY/WX    TMP DP  RH WIND       PRES   REMARKS
SUPERIOR ARPT  CLOUDY    33  33  99 NE7       30.01F WCI  27
ASHLAND        MIX PCPN  32  31  96 N3        30.01F VSB 1/2
6HR MIN TEMP:  32; 6HR MAX TEMP:  32; 6HR PCP:  0.12;

HAYWARD        LGT RAIN  35  32  88 NE6       29.97S WCI  30
6HR MIN TEMP:  34; 6HR MAX TEMP:  36; 6HR PCP:  0.04;

SIREN          DRIZZLE   33  33  98 NE3       29.97S
CUMBERLAND     DRIZZLE   32  32 100 NE5       29.95S WCI  27
RICE LAKE      CLOUDY    34  34  99 CALM      29.97S FOG
CHETEK         CLOUDY    34  33  99 CALM      29.95S FOG
LADYSMITH      CLOUDY    34  34  99 NE5       29.97S FOG     WCI  30
EAU CLAIRE     NOT AVBL
MENOMONIE      CLOUDY    35  35  99 NE6       29.94F FOG     WCI  30
NEW RICHMOND   CLOUDY    34  34  99 NE5       29.95S WCI  30
OSCEOLA        RAIN      35  35 100 N3        29.98S
$$

WIZ003>005-009-010-017-018-261300-
NORTH CENTRAL WISCONSIN

CITY           SKY/WX    TMP DP  RH WIND       PRES   REMARKS
MANITOWISH WTR CLOUDY    32  32 100 E3        29.96F FOG
ARBOR VITAE    CLOUDY    33  32  96 CALM      29.96R FOG
WOODRUFF       CLOUDY    33  32  96 CALM      29.96R FOG
RHINELANDER    LGT RAIN  33  33 100 E7        29.95F FOG     WCI  27
6HR MIN TEMP:  33; 6HR MAX TEMP:  34; 6HR PCP: TRACE;

EAGLE RIVER    CLOUDY    32  32 100 E3        29.96F FOG
LAND O LAKES   CLOUDY    32  32 100 CALM      29.99R
PHILLIPS       CLOUDY    32  32 100 E5        29.95F WCI  27
TOMAHAWK       DRIZZLE   32  31  96 NE3       29.96S
MEDFORD        MIX PCPN  32  31  96 E6        29.93S WCI  26
MERRILL        MIX PCPN  32  32 100 E3        29.95F
$$

WIZ029-030-035-036-043>047-261300-
CENTRAL WISCONSIN

CITY           SKY/WX    TMP DP  RH WIND       PRES   REMARKS
WAUSAU         MIX PCPN  32  32 100 E6        29.93S WCI  26
6HR MIN TEMP:  32; 6HR MAX TEMP:  33; 6HR PCP:  0.08;

MOSINEE        CLOUDY    32  32 100 E10       29.94F WCI  24
MARSHFIELD     CLOUDY    33  31  92 E9        29.91S FOG     WCI  25
6HR MIN TEMP:  33; 6HR MAX TEMP:  33; 6HR PCP:  0.01;

STEVENS POINT  CLOUDY    31  31 100 NE9       29.94F FOG     WCI  23
WAUPACA        LGT RAIN  36  35  96 NE5       29.96S WCI  32
WAUTOMA        CLOUDY    35  34  96 NE9       29.93F WCI  28
6HR MIN TEMP:  35; 6HR MAX TEMP:  35; 6HR PCP:  0.14;

WISC RAPIDS    LGT RAIN  34  34 100 E8        29.94S FOG     WCI  27
6HR MIN TEMP:  34; 6HR MAX TEMP:  34; 6HR PCP:  0.05;

CAMP DOUGLAS   NOT AVBL
$$

WIZ011>013-019>022-031-037>040-048>050-261300-
NORTHEAST WISCONSIN

CITY           SKY/WX    TMP DP  RH WIND       PRES   REMARKS
ANTIGO         MIX PCPN  31  31 100 E7        29.95F WCI  24
SHAWANO        DRIZZLE   34  33  93 NE7       29.98F WCI  28
OCONTO         CLOUDY    33  33  98 NE7       30.00S WCI  27
STURGEON BAY   LGT RAIN  35  34  96 E8        29.99F VSB 1   WCI  29
6HR MIN TEMP:  34; 6HR MAX TEMP:  35;

GREEN BAY      MIX PCPN  35  35 100 NE10      29.97S VSB 1   WCI  27
6HR MIN TEMP:  35; 6HR MAX TEMP:  35; 6HR PCP:  0.01;

MANITOWOC      NOT AVBL
APPLETON       LGT RAIN  34  34 100 NE14      29.93F FOG     WCI  24
CLINTONVILLE   CLOUDY    32  32 100 NE6       29.97F WCI  26
OSHKOSH        CLOUDY    36  35  96 NE9       29.93S WCI  29
6HR MIN TEMP:  36; 6HR MAX TEMP:  36; 6HR PCP:  0.08;

$$

WIZ032>034-041-042-053>061-261300-
SOUTHWEST WISCONSIN

CITY           SKY/WX    TMP DP  RH WIND       PRES   REMARKS
LA CROSSE      CLOUDY    37  36  96 N5        29.91S FOG     WCI  33
6HR MIN TEMP:  37; 6HR MAX TEMP:  38; 6HR PCP:  0.08;

SPARTA         LGT RAIN  35  35 100 NE5       29.92S WCI  31
VIROQUA        CLOUDY    36  36 100 NE9       29.87F WCI  29
BOSCOBEL       CLOUDY    40  39  97 NE6       29.88S
6HR MIN TEMP:  40; 6HR MAX TEMP:  40; 6HR PCP:  0.10;

PRAIRIE DU CHI CLOUDY    39  38  97 CALM      29.87S
PLATTEVILLE    CLOUDY    41  41 100 NE10      29.84S VSB 3/4
$$

WIZ056-057-062-063-064-067-068-261300-
SOUTH CENTRAL WISCONSIN

CITY           SKY/WX    TMP DP  RH WIND       PRES   REMARKS
REEDSBURG      CLOUDY    37  37 100 NE7       29.89F WCI  31
BARABOO/DELLS  CLOUDY    37  36  97 NE6       29.90S FOG     WCI  32
LONE ROCK      NOT AVBL
MINERAL POINT  DRZL/FOG  41  41 100 NE8       29.85S VSB 1/2
MADISON        DRZL/FOG  40  40 100 NE8       29.88S VSB 1/4 WCI  34
6HR MIN TEMP:  39; 6HR MAX TEMP:  40; 6HR PCP:  0.05;

MIDDLETON      CLOUDY    41  41 100 NE6       29.88S VSB 1/2
WATERTOWN      CLOUDY    40  40 100 E8        29.89S FOG     WCI  34
MONROE         SNOW      41  41 100 NE10      29.84S VSB 1/4
JANESVILLE     FOG       45  45 100 E8        29.86S VSB 1/2
$$

WIZ051-052-058>065-066-070>072-261300-
SOUTHEAST WISCONSIN

CITY           SKY/WX    TMP DP  RH WIND       PRES   REMARKS
MILWAUKEE      LGT RAIN  39  37  92 NE12      29.91S VSB 1/2 WCI  32
6HR MIN TEMP:  39; 6HR MAX TEMP:  40; 6HR PCP:  0.04;

WAUKESHA       FOG       37  37 100 NE8       29.91S VSB 1/2 WCI  31
MILWAUKEE/TIMM DRIZZLE   37  36  93 NE6       29.92F WCI  33
RACINE         LGT RAIN  40  38  93 NE8       29.92S FOG     WCI  34
6HR MIN TEMP:  39; 6HR MAX TEMP:  40; 6HR PCP:  0.07;

KENOSHA        LGT RAIN  41  41 100 NE9       29.89S FOG
6HR MIN TEMP:  41; 6HR MAX TEMP:  42; 6HR PCP:  0.10;

FOND DU LAC    CLOUDY    38  35  89 NE8       29.92F WCI  32
6HR MIN TEMP:  38; 6HR MAX TEMP:  38; 6HR PCP:  0.06;

SHEBOYGAN      LGT RAIN  37  36  96 NE10      29.94S FOG     WCI  30
6HR MIN TEMP:  37; 6HR MAX TEMP:  37; 6HR PCP:  0.05;

WEST BEND      FOG       37  37 100 E9        29.92S VSB 1   WCI  31
JUNEAU         FOG       39  38  99 E6        29.91S VSB 1/2 WCI  34
$$

LSZ147-162-261300-
LAKE SUPERIOR

STATION/POSITION TIME  TEMP    WIND        PRES    WAVE
                       AIR SEA DIR/SP/G            HT/PER
                 (UTC) (F)     (DEG/KT/KT) (MB)    (FT/S)
DEVILS ISLAND    1100   33     110/  4/  6 1017.6F
PORT WING        1140   33      40/  6/  6 1016.6S
SAXON HARBOR     1140   32        CALM     1015.9F
$$

LMZ867-665-643>646-261300-
LAKE MICHIGAN

STATION/POSITION TIME  TEMP    WIND        PRES    WAVE
                       AIR SEA DIR/SP/G            HT/PER
                 (UTC) (F)     (DEG/KT/KT) (MB)    (FT/S)
CHAMBERS ISLAND  1140   33      50/  9/ 12 1015.9S
NORTHPORT PIER   1140   34      70/ 14/ 17 1016.6S
SISTER BAY       1051   34     120/  7/ 11   N/A
KEWAUNEE LAKESHO 1130   36      60/  8/ 11 1014.7F
SHEBOYGAN LAKESH 1100   36      20/  9/ 10 1014.8F
PORT WASHINGTON  1130   39      40/  9/ 13 1014.9S
MILWAUKEE LAKESH 1130   38      20/ 14/ 15   N/A
KENOSHA   LAKESH 1100   39      20/ 11/ 13 1012.5
$$

TC  - TEMPERATURE IN CELSIUS
VSB - VISIBILITY IN STATUTE MILES
WCI - WIND CHILL INDEX
HX  - HEAT INDEX




USA.gov is the U.S. government's official web portal to all federal, state and local government web resources and services.